Year,Month,Day,Hour,Minute,Value (Times are PST for temperature in C)
2020,12,05,09,19,6.40
2020,12,05,09,20,6.40
2020,12,05,09,21,6.40
2020,12,05,09,22,6.60
2020,12,05,09,23,6.60
2020,12,05,09,24,6.60
2020,12,05,09,25,6.60
2020,12,05,09,26,6.60
2020,12,05,09,27,6.60
2020,12,05,09,28,6.60
2020,12,05,09,29,6.70
2020,12,05,09,30,6.70
2020,12,05,09,31,6.70
2020,12,05,09,32,6.70
2020,12,05,09,33,6.80
2020,12,05,09,34,6.80
2020,12,05,09,35,6.80
2020,12,05,09,36,6.80
2020,12,05,09,37,6.90
2020,12,05,09,38,6.90
2020,12,05,09,39,7.00
2020,12,05,09,40,7.00
2020,12,05,09,41,7.10
2020,12,05,09,42,7.10
2020,12,05,09,43,7.20
2020,12,05,09,44,7.20
2020,12,05,09,45,7.30
2020,12,05,09,46,7.30
2020,12,05,09,47,7.30
2020,12,05,09,48,7.30
2020,12,05,09,49,7.30
2020,12,05,09,50,7.40
2020,12,05,09,51,7.40
2020,12,05,09,52,7.40
2020,12,05,09,53,7.50
2020,12,05,09,54,7.50
2020,12,05,09,55,7.50
2020,12,05,09,56,7.60
2020,12,05,09,57,7.60
2020,12,05,09,58,7.60
2020,12,05,09,59,7.70
2020,12,05,10,00,7.70
2020,12,05,10,01,7.70
2020,12,05,10,02,7.70
2020,12,05,10,03,7.80
2020,12,05,10,04,7.80
2020,12,05,10,05,7.80
2020,12,05,10,06,7.80
2020,12,05,10,07,7.80
2020,12,05,10,08,7.90
2020,12,05,10,09,7.90
2020,12,05,10,10,7.90
2020,12,05,10,11,8.00
2020,12,05,10,12,8.00
2020,12,05,10,13,8.00
2020,12,05,10,14,8.00
2020,12,05,10,15,8.00
2020,12,05,10,16,8.00
2020,12,05,10,17,8.10
2020,12,05,10,18,8.10
2020,12,05,10,19,8.10
2020,12,05,10,20,8.20
2020,12,05,10,21,8.20
2020,12,05,10,22,8.20
2020,12,05,10,23,8.20
2020,12,05,10,24,8.20
2020,12,05,10,25,8.20
2020,12,05,10,26,8.20
2020,12,05,10,27,8.20
2020,12,05,10,28,8.20
2020,12,05,10,29,8.20
2020,12,05,10,30,8.30
2020,12,05,10,31,8.30
2020,12,05,10,32,8.30
2020,12,05,10,33,8.30
2020,12,05,10,34,8.30
2020,12,05,10,35,8.40
2020,12,05,10,36,8.40
2020,12,05,10,37,8.40
2020,12,05,10,38,8.40
2020,12,05,10,39,8.40
2020,12,05,10,40,8.40
2020,12,05,10,41,8.40
2020,12,05,10,42,8.40
2020,12,05,10,43,8.50
2020,12,05,10,44,8.50
2020,12,05,10,45,8.50
2020,12,05,10,46,8.50
2020,12,05,10,47,8.50
2020,12,05,10,48,8.50
2020,12,05,10,49,8.60
2020,12,05,10,50,8.60
2020,12,05,10,51,8.70
2020,12,05,10,52,8.70
2020,12,05,10,53,8.70
2020,12,05,10,54,8.70
2020,12,05,10,55,8.70
2020,12,05,10,56,8.70
2020,12,05,10,57,8.80
2020,12,05,10,58,8.80
2020,12,05,10,59,8.80
2020,12,05,11,00,8.90
2020,12,05,11,01,8.90
2020,12,05,11,02,8.90
2020,12,05,11,03,9.00
2020,12,05,11,04,9.00
2020,12,05,11,05,9.10
2020,12,05,11,06,9.10
2020,12,05,11,07,9.20
2020,12,05,11,08,9.20
2020,12,05,11,09,9.20
2020,12,05,11,10,9.30
2020,12,05,11,11,9.30
2020,12,05,11,12,9.30
2020,12,05,11,13,9.40
2020,12,05,11,14,9.40
2020,12,05,11,15,9.40
2020,12,05,11,16,9.40
2020,12,05,11,17,9.40
2020,12,05,11,18,9.50
2020,12,05,11,19,9.50
2020,12,05,11,20,9.50
2020,12,05,11,21,9.50
2020,12,05,11,22,9.60
2020,12,05,11,23,9.60
2020,12,05,11,24,9.60
2020,12,05,11,25,9.60
2020,12,05,11,26,9.70
2020,12,05,11,27,9.70
2020,12,05,11,28,9.70
2020,12,05,11,29,9.70
2020,12,05,11,30,9.70
2020,12,05,11,31,9.70
2020,12,05,11,32,9.70
2020,12,05,11,33,9.70
2020,12,05,11,34,9.70
2020,12,05,11,35,9.70
2020,12,05,11,36,9.70
2020,12,05,11,37,9.70
2020,12,05,11,38,9.70
2020,12,05,11,39,9.70
2020,12,05,11,40,9.80
2020,12,05,11,41,9.80
2020,12,05,11,42,9.80
2020,12,05,11,43,9.80
2020,12,05,11,44,9.90
2020,12,05,11,45,9.90
2020,12,05,11,46,9.90
2020,12,05,11,47,9.90
2020,12,05,11,48,9.90
2020,12,05,11,49,9.90
2020,12,05,11,50,9.90
2020,12,05,11,51,9.90
2020,12,05,11,52,9.90
2020,12,05,11,53,9.80
2020,12,05,11,54,9.80
2020,12,05,11,55,9.80
2020,12,05,11,56,9.80
2020,12,05,11,57,9.80
2020,12,05,11,58,9.80
2020,12,05,11,59,9.80
2020,12,05,12,00,9.80
2020,12,05,12,01,9.80
2020,12,05,12,02,9.80
2020,12,05,12,03,9.80
2020,12,05,12,04,9.80
2020,12,05,12,05,9.80
2020,12,05,12,06,9.90
2020,12,05,12,07,9.90
2020,12,05,12,08,9.90
2020,12,05,12,09,9.90
2020,12,05,12,10,9.90
2020,12,05,12,11,10.00
2020,12,05,12,12,10.10
2020,12,05,12,13,10.10
2020,12,05,12,14,10.10
2020,12,05,12,15,10.10
2020,12,05,12,16,10.10
2020,12,05,12,17,10.10
2020,12,05,12,18,10.10
2020,12,05,12,19,10.10
2020,12,05,12,20,10.10
2020,12,05,12,21,10.10
2020,12,05,12,22,10.10
2020,12,05,12,23,10.20
2020,12,05,12,24,10.20
2020,12,05,12,25,10.20
2020,12,05,12,26,10.20
2020,12,05,12,27,10.20
2020,12,05,12,28,10.20
2020,12,05,12,29,10.30
2020,12,05,12,30,10.30
2020,12,05,12,31,10.30
2020,12,05,12,32,10.30
2020,12,05,12,33,10.30
2020,12,05,12,34,10.30
2020,12,05,12,35,10.30
2020,12,05,12,36,10.30
2020,12,05,12,37,10.30
2020,12,05,12,38,10.40
2020,12,05,12,39,10.40
2020,12,05,12,40,10.40
2020,12,05,12,41,10.60
2020,12,05,12,42,10.60
2020,12,05,12,43,10.60
2020,12,05,12,44,10.60
2020,12,05,12,45,10.60
2020,12,05,12,46,10.60
2020,12,05,12,47,10.60
2020,12,05,12,48,10.60
2020,12,05,12,49,10.60
2020,12,05,12,50,10.60
2020,12,05,12,51,10.60
2020,12,05,12,52,10.60
2020,12,05,12,53,10.60
2020,12,05,12,54,10.60
2020,12,05,12,55,10.50
2020,12,05,12,56,10.40
2020,12,05,12,57,10.40
2020,12,05,12,58,10.40
2020,12,05,12,59,10.40
2020,12,05,13,00,10.40
2020,12,05,13,01,10.40
2020,12,05,13,02,10.40
2020,12,05,13,03,10.40
2020,12,05,13,04,10.40
2020,12,05,13,05,10.30
2020,12,05,13,06,10.30
2020,12,05,13,07,10.30
2020,12,05,13,08,10.30
2020,12,05,13,09,10.30
2020,12,05,13,10,10.30
2020,12,05,13,11,10.30
2020,12,05,13,12,10.20
2020,12,05,13,13,10.20
2020,12,05,13,14,10.20
2020,12,05,13,15,10.20
2020,12,05,13,16,10.20
2020,12,05,13,17,10.20
2020,12,05,13,18,10.20
2020,12,05,13,19,10.20
2020,12,05,13,20,10.20
2020,12,05,13,21,10.20
2020,12,05,13,22,10.20
2020,12,05,13,23,10.30
2020,12,05,13,24,10.30
2020,12,05,13,25,10.30
2020,12,05,13,26,10.30
2020,12,05,13,27,10.40
2020,12,05,13,28,10.40
2020,12,05,13,29,10.40
2020,12,05,13,30,10.40
2020,12,05,13,31,10.40
2020,12,05,13,32,10.40
2020,12,05,13,33,10.40
2020,12,05,13,34,10.40
2020,12,05,13,35,10.40
2020,12,05,13,36,10.50
2020,12,05,13,37,10.60
2020,12,05,13,38,10.60
2020,12,05,13,39,10.60
2020,12,05,13,40,10.60
2020,12,05,13,41,10.70
2020,12,05,13,42,10.70
2020,12,05,13,43,10.80
2020,12,05,13,44,10.80
2020,12,05,13,45,10.80
2020,12,05,13,46,10.80
2020,12,05,13,47,10.90
2020,12,05,13,48,10.90
2020,12,05,13,49,10.90
2020,12,05,13,50,10.90
2020,12,05,13,51,10.90
2020,12,05,13,52,10.90
2020,12,05,13,53,10.90
2020,12,05,13,54,10.90
2020,12,05,13,55,10.90
2020,12,05,13,56,10.90
2020,12,05,13,57,10.90
2020,12,05,13,58,10.90
2020,12,05,13,59,10.90
2020,12,05,14,00,10.90
2020,12,05,14,01,10.90
2020,12,05,14,02,10.90
2020,12,05,14,03,10.90
2020,12,05,14,04,10.90
2020,12,05,14,05,10.90
2020,12,05,14,06,11.00
2020,12,05,14,07,11.10
2020,12,05,14,08,11.10
2020,12,05,14,09,11.10
2020,12,05,14,10,11.10
2020,12,05,14,11,11.10
2020,12,05,14,12,11.10
2020,12,05,14,13,11.10
2020,12,05,14,14,11.10
2020,12,05,14,15,11.10
2020,12,05,14,16,11.10
2020,12,05,14,17,11.10
2020,12,05,14,18,11.10
2020,12,05,14,19,11.10
2020,12,05,14,20,11.10
2020,12,05,14,21,11.10
2020,12,05,14,22,11.10
2020,12,05,14,23,11.10
2020,12,05,14,24,11.20
2020,12,05,14,25,11.20
2020,12,05,14,26,11.20
2020,12,05,14,27,11.20
2020,12,05,14,28,11.30
2020,12,05,14,29,11.30
2020,12,05,14,30,11.30
2020,12,05,14,31,11.30
2020,12,05,14,32,11.30
2020,12,05,14,33,11.30
2020,12,05,14,34,11.30
2020,12,05,14,35,11.30
2020,12,05,14,36,11.30
2020,12,05,14,37,11.30
2020,12,05,14,38,11.30
2020,12,05,14,39,11.30
2020,12,05,14,40,11.30
2020,12,05,14,41,11.30
2020,12,05,14,42,11.30
2020,12,05,14,43,11.30
2020,12,05,14,44,11.30
2020,12,05,14,45,11.30
2020,12,05,14,46,11.30
2020,12,05,14,47,11.20
2020,12,05,14,48,11.20
2020,12,05,14,49,11.20
2020,12,05,14,50,11.20
2020,12,05,14,51,11.20
2020,12,05,14,52,11.20
2020,12,05,14,53,11.20
2020,12,05,14,54,11.20
2020,12,05,14,55,11.20
2020,12,05,14,56,11.20
2020,12,05,14,57,11.20
2020,12,05,14,58,11.20
2020,12,05,14,59,11.20
2020,12,05,15,00,11.20
2020,12,05,15,01,11.20
2020,12,05,15,02,11.20
2020,12,05,15,03,11.20
2020,12,05,15,04,11.20
2020,12,05,15,05,11.20
2020,12,05,15,06,11.20
2020,12,05,15,07,11.20
2020,12,05,15,08,11.20
2020,12,05,15,09,11.10
2020,12,05,15,10,11.10
2020,12,05,15,11,11.10
2020,12,05,15,12,11.10
2020,12,05,15,13,11.10
2020,12,05,15,14,11.10
2020,12,05,15,15,11.10
2020,12,05,15,16,11.10
2020,12,05,15,17,11.10
2020,12,05,15,18,11.10
2020,12,05,15,19,11.10
2020,12,05,15,20,11.10
2020,12,05,15,21,11.10
2020,12,05,15,22,11.20
2020,12,05,15,23,11.20
2020,12,05,15,24,11.20
2020,12,05,15,25,11.20
2020,12,05,15,26,11.20
2020,12,05,15,27,11.10
2020,12,05,15,28,11.10
2020,12,05,15,29,11.10
2020,12,05,15,30,11.10
2020,12,05,15,31,11.10
2020,12,05,15,32,11.10
2020,12,05,15,33,11.10
2020,12,05,15,34,11.10
2020,12,05,15,35,11.10
2020,12,05,15,36,11.00
2020,12,05,15,37,10.90
2020,12,05,15,38,10.90
2020,12,05,15,39,10.90
2020,12,05,15,40,10.90
2020,12,05,15,41,10.90
2020,12,05,15,42,10.90
2020,12,05,15,43,10.90
2020,12,05,15,44,10.90
2020,12,05,15,45,10.90
2020,12,05,15,46,10.90
2020,12,05,15,47,10.80
2020,12,05,15,48,10.80
2020,12,05,15,49,10.80
2020,12,05,15,50,10.80
2020,12,05,15,51,10.80
2020,12,05,15,52,10.70
2020,12,05,15,53,10.70
2020,12,05,15,54,10.70
2020,12,05,15,55,10.70
2020,12,05,15,56,10.70
2020,12,05,15,57,10.60
2020,12,05,15,58,10.60
2020,12,05,15,59,10.60
2020,12,05,16,00,10.60
2020,12,05,16,01,10.60
2020,12,05,16,02,10.60
2020,12,05,16,03,10.60
2020,12,05,16,04,10.60
2020,12,05,16,05,10.60
2020,12,05,16,06,10.60
2020,12,05,16,07,10.60
2020,12,05,16,08,10.60
2020,12,05,16,09,10.60
